Kalaeloa, HI

10:36 PM HST on May 26, 2017 (GMT -1000)
Kalaeloa (John Rodgers Field)

Weather History for PHJR - February, 2014

Change the Weather History Date:

Friday, February 21, 2014

  Actual Average (PHHI) Record (PHHI)
Temperature  
Mean Temperature 72 °F -  
Max Temperature 80 °F 74 °F 78 °F (2014)
Min Temperature 64 °F 61 °F 57 °F (2002)
Cooling Degree Days 7    
Growing Degree Days 22 (Base 50)    
Moisture  
Dew Point 67 °F    
Average Humidity 80    
Maximum Humidity 93    
Minimum Humidity 64    
Precipitation  
Precipitation 0.00 in - - ()
Sea Level Pressure  
Sea Level Pressure 29.95 in    
Wind  
Wind Speed 2 mph (SE)    
Max Wind Speed 9 mph    
Max Gust Speed -    
Visibility 10 miles    
Events      
Averages and records for this station are not official NWS values.
T = Trace of Precipitation, MM = Missing Value Source: NWS Daily Summary

Daily Weather History Graph

Daily Weather History Graph

Search for Another Location

Airport or City:

Trip Planner

Search our weather history database for the weather conditions in past years. The results will help you decide how hot, cold, wet, or windy it might be!

Date:

Astronomy

Feb. 21, 2014 Rise Set
Actual Time 6:58 AM HST 6:33 PM HST
Civil Twilight 6:36 AM HST 6:55 PM HST
Nautical Twilight 6:10 AM HST 7:21 PM HST
Astronomical Twilight 5:44 AM HST 7:47 PM HST
Moon No Moon Rise 11:21 AM HST (2/21)
Length of Visible Light 12h 19m
Length of Day
11h 34m
Waning Gibbous, 59% of the Moon is Illuminated
Feb 21
Waning Gibbous
Feb 22
Last Quarter
Feb 28
New
Mar 8
First Quarter
Mar 16
Full

Hourly Weather History & Observations

Time (HST) Temp. Heat Index Dew Point Humidity Pressure Visibility Wind Dir Wind Speed Gust Speed Precip Events Conditions
12:53 AM 69.1 °F - 64.9 °F 87% 29.96 in 10.0 mi Calm Calm - N/A   Clear
1:53 AM 68.0 °F - 64.9 °F 90% 29.94 in 10.0 mi Variable 3.5 mph - N/A   Clear
2:53 AM 68.0 °F - 64.0 °F 87% 29.93 in 10.0 mi NE 3.5 mph - N/A   Clear
3:53 AM 66.9 °F - 64.0 °F 90% 29.92 in 10.0 mi Calm Calm - N/A   Clear
4:53 AM 66.0 °F - 64.0 °F 93% 29.93 in 10.0 mi Calm Calm - N/A   Clear
5:53 AM 66.0 °F - 63.0 °F 90% 29.94 in 10.0 mi NE 3.5 mph - N/A   Clear
6:53 AM 64.9 °F - 63.0 °F 93% 29.95 in 10.0 mi NE 3.5 mph - N/A   Clear
7:53 AM 69.1 °F - 64.9 °F 87% 29.98 in 10.0 mi Calm Calm - N/A   Clear
8:53 AM 75.0 °F - 66.9 °F 76% 29.99 in 10.0 mi Calm Calm - N/A   Clear
9:53 AM 80.1 °F 82.3 °F 66.9 °F 64% 29.99 in 10.0 mi SE 4.6 mph - N/A   Clear
10:53 AM 78.1 °F - 66.9 °F 68% 30.00 in 10.0 mi Variable 3.5 mph - N/A   Clear
11:53 AM 79.0 °F - 68.0 °F 69% 29.97 in 10.0 mi SSE 8.1 mph - N/A   Clear
12:53 PM 79.0 °F - 70.0 °F 74% 29.94 in 10.0 mi SE 6.9 mph - N/A   Clear
1:53 PM 80.1 °F 83.2 °F 70.0 °F 71% 29.90 in 10.0 mi SSE 9.2 mph - N/A   Clear
2:53 PM 79.0 °F - 70.0 °F 74% 29.89 in 10.0 mi SSE 4.6 mph - N/A   Clear
3:53 PM 80.1 °F 83.2 °F 70.0 °F 71% 29.89 in 10.0 mi South 8.1 mph - N/A   Clear
4:53 PM 79.0 °F - 69.1 °F 72% 29.90 in 10.0 mi SSW 6.9 mph - N/A   Clear
5:53 PM 78.1 °F - 68.0 °F 71% 29.91 in 10.0 mi SSW 5.8 mph - N/A   Clear
6:53 PM 77.0 °F - 68.0 °F 74% 29.92 in 10.0 mi Calm Calm - N/A   Clear
7:53 PM 73.9 °F - 68.0 °F 82% 29.94 in 10.0 mi Calm Calm - N/A   Clear
8:53 PM 73.0 °F - 68.0 °F 84% 29.97 in 10.0 mi Calm Calm - N/A   Clear
9:53 PM 73.0 °F - 69.1 °F 87% 29.99 in 10.0 mi Calm Calm - N/A   Clear
10:53 PM 73.0 °F - 66.9 °F 81% 29.99 in 10.0 mi Calm Calm - N/A   Clear
11:53 PM 71.1 °F - 66.9 °F 87% 30.00 in 10.0 mi Calm Calm - N/A   Partly Cloudy